Home > Weather > Trenton > Past weeks

Flag for USA Past Weather in Trenton, New Jersey, USA — Yesterday and Last 2 Weeks

Now
89 °F

Scattered clouds.


Feels Like: 92 °F
Forecast: 72 / 93 °F
Wind: 8 mph from Northwest

Location: Mercer County Airport

Current Time: Jul 26, 2016 at 4:06:44 PM

Latest Report: Jul 26, 2016 at 2:53 PM


Visibility: 10 mi

Pressure: 29.88 "Hg

Humidity: 48%

Dew Point: 67 °F

Location of TrentonLocation

Past Weather in Trenton — Graph

°F

Trenton Temperature Yesterday

Maximum temperature yesterday: 94 °F (at 2:53 PM)
Minimum temperature yesterday: 73 °F (at 6:02 PM)
Average temperature yesterday: 79 °F

High & Low Weather Summary for the Past Weeks

 TemperatureHumidityPressure
High96 °F (Jul 23, 3:53 PM)97% (Jul 25, 6:53 PM)30.22 "Hg (Jul 25, 6:53 PM)
Low64 °F (Jul 12, 5:53 AM)27% (Jul 23, 2:53 PM)29.76 "Hg (Jul 14, 5:53 PM)
Average79 °F66%29.98 "Hg
* Reported Jul 11 2:53 PM — Jul 26 2:53 PM, Trenton, Weather by CustomWeather, © 2016

Note: Actual official high and low records may vary slightly from our data, if they occured in-between our weather recording intervals... More about our weather records

Advertising

Trenton Weather History for the Previous 24 Hours

Scroll right to see more
 ConditionsComfort  
Time TempWeatherWind HumidityBarometerVisibility
2:53 PM
Tue, Jul 26
89 °FScattered clouds.8 mph48%29.88 "Hg10 mi
1:53 PM88 °FSunny.8 mph46%29.88 "Hg10 mi
12:53 PM87 °FSunny.8 mph50%29.89 "Hg10 mi
11:53 AM86 °FSunny.5 mph55%29.91 "Hg10 mi
10:53 AM84 °FSunny.5 mph63%29.91 "Hg10 mi
9:53 AM81 °FSunny.8 mph69%29.91 "Hg10 mi
8:53 AM77 °FSunny.7 mph82%29.91 "Hg10 mi
7:53 AM74 °FSunny.5 mph88%29.90 "Hg10 mi
6:53 AM72 °FSunny.5 mph91%29.90 "Hg10 mi
5:53 AM71 °FClear.3 mph93%29.88 "Hg10 mi
4:53 AM72 °FClear.7 mph91%29.87 "Hg10 mi
3:53 AM72 °FClear.3 mph91%29.87 "Hg10 mi
2:53 AM72 °FClear.3 mph93%29.87 "Hg10 mi
1:53 AM73 °FClear.5 mph90%29.87 "Hg10 mi
12:53 AM73 °FPassing clouds.5 mph94%29.86 "Hg10 mi
11:53 PM
Mon, Jul 25
74 °FPassing clouds.3 mph91%29.88 "Hg10 mi
10:53 PM74 °FPassing clouds.7 mph91%29.88 "Hg10 mi
9:53 PM74 °FPassing clouds.13 mph94%29.89 "Hg10 mi
8:53 PM74 °FLight rain. Broken clouds.7 mph97%29.86 "Hg9 mi
7:53 PM75 °FThundershowers. Mostly cloudy.6 mph94%29.89 "Hg10 mi
7:04 PM74 °FThunderstorms. Fog.13 mph97%29.91 "Hg2 mi
6:53 PM74 °FStrong thunderstorms. Fog.9 mph97%29.90 "Hg1 mi
6:02 PM73 °FStrong thunderstorms. Fog.32 mph88%29.88 "Hg0 mi
5:56 PM75 °FStrong thunderstorms. Fog.28 mph90%29.84 "Hg1 mi
5:00 PM80 °FThunderstorms. Cloudy.12 mph79%29.84 "Hg2 mi
4:53 PM89 °FStrong thunderstorms. More clouds than sun.18 mph61%29.81 "Hg3 mi
Weather by CustomWeather, © 2016

See weather overviewHow to use our weather pages